Regional Weather Roundup
Issued by NWS

Home | Current Version | Previous Version | Graphics & Text | Print | Product List | Glossary On
Versions: 1 2 3 4 5 6 7 8 9 10 11 12 13 14 15 16 17 18 19 20 21 22 23 24 25 26 27 28 29 30 31 32 33 34 35 36 37 38 39 40 41 42 43 44 45 46 47 48 49 50
000
ASUS43 KBIS 231002
RWRND

NORTH DAKOTA REGIONAL WEATHER ROUNDUP
NATIONAL WEATHER SERVICE BISMARCK ND
400 AM CST THU NOV 23 2017

NOTE: "FAIR" INDICATES FEW OR NO CLOUDS BELOW 12,000 FEET WITH NO
SIGNIFICANT WEATHER AND/OR OBSTRUCTIONS TO VISIBILITY.


NDZ001>003-009>011-017-231100-
NORTHWEST NORTH DAKOTA

CITY           SKY/WX    TMP DP  RH WIND       PRES   REMARKS
WILLISTON      CLOUDY    25  23  92 S3        29.81F
MINOT          CLOUDY    29  25  85 S10       29.80F WCI  20
MINOT AFB      CLOUDY    21  19  91 CALM      29.80F
$$

NDZ018>021-031>035-040>046-231100-
SOUTHWEST NORTH DAKOTA

CITY           SKY/WX    TMP DP  RH WIND       PRES   REMARKS
BISMARCK       CLOUDY    26  22  84 E3        29.91F
DICKINSON      CLEAR     42  38  85 W15       29.85F
GARRISON         N/A     27  26  96 SE6       29.85F
HETTINGER ARPT CLEAR     34  31  88 W5        29.93F
$$

NDZ004>008-012>016-024-026-027-054-231100-
NORTHEAST NORTH DAKOTA

CITY           SKY/WX    TMP DP  RH WIND       PRES   REMARKS
GRAND FORKS    CLOUDY    25  24  96 SW5       29.92F WCI  19
GRND FRKS AFB  CLOUDY    26  24  92 S5        29.91F
DEVILS LAKE    CLOUDY    27  24  89 SW8       29.88F WCI  19
$$

NDZ022-023-025-028>030-036>039-047>053-231100-
SOUTHEAST NORTH DAKOTA

CITY           SKY/WX    TMP DP  RH WIND       PRES   REMARKS
FARGO          CLOUDY    25  19  78 S5        29.95F WCI  19
JAMESTOWN      CLOUDY    25  22  88 SW6       29.91F WCI  18
$$




USA.gov is the U.S. government's official web portal to all federal, state and local government web resources and services.